EW1732 Weather Reports


Display with metric or nautical units.
time (UTC)temp
F
wind
direction
speed
MPH
gust
MPH
rain 1hr
in
rain 24hr
in
rain mn
in
humidity
%
barometer
mb
20260903063626 65 269 0.0 0.0 0.00 0.45 0.28 98 1015.9
20260903062644 66 269 0.0 0.0 0.00 0.45 0.28 98 1016.0
20260903061627 66 125 0.0 0.0 0.00 0.45 0.28 98 1015.7
20260903060620 65 172 0.0 0.0 0.06 0.45 0.28 98 1016.5
20260903055550 65 187 0.0 0.0 0.08 0.44 0.27 98 1017.2
20260903054558 65 187 0.0 0.0 0.10 0.42 0.27 97 1016.6
20260903053528 66 207 0.0 0.0 0.20 0.41 0.25 97 1017.3
20260903051334 66 208 0.0 0.0 0.73 0.32 0.17 97 1018.5
20260903050305 66 150 0.0 1.0 1.42 0.23 0.06 97 1019.0
20260903045242 66 16 0.0 0.0 0.00 0.16 0.00 97 1018.8
20260903043140 65 67 0.0 0.0 0.00 0.16 0.00 97 1018.3
20260903042120 65 66 0.0 0.0 0.00 0.16 0.00 97 1018.3
20260903041130 65 66 0.0 0.0 0.00 0.16 0.00 97 1018.4
20260903040154 65 67 0.0 0.0 0.00 0.16 0.00 97 1018.6
20260903035201 65 67 0.0 0.0 0.00 0.16 0.16 97 1018.6
20260903034132 65 66 0.0 0.0 0.00 0.16 0.16 97 1018.5
20260903033152 65 66 0.0 0.0 0.00 0.16 0.16 97 1018.5
20260903025908 65 67 0.0 0.0 0.00 0.16 0.16 96 1018.7
20260903023751 65 67 0.0 0.0 0.00 0.16 0.16 96 1019.1
20260903022751 65 66 0.0 0.0 0.00 0.16 0.16 96 1019.3
20260903021717 65 67 0.0 0.0 0.00 0.16 0.16 96 1019.2
20260903020716 65 67 0.0 0.0 0.00 0.16 0.16 96 1019.2
20260903015656 65 66 0.0 0.0 0.00 0.16 0.16 96 1019.5
20260903013536 64 66 0.0 0.0 0.00 0.16 0.16 96 1019.4
20260903012536 65 66 0.0 0.0 0.00 0.16 0.16 96 1019.4
20260903011536 65 67 0.0 0.0 0.00 0.16 0.16 96 1019.7
20260903010531 65 66 0.0 0.0 0.00 0.16 0.16 96 1019.6
20260903005504 65 66 0.0 0.0 0.00 0.16 0.16 96 1019.5
20260903004447 65 67 0.0 0.0 0.00 0.18 0.16 95 1019.7
20260903003430 65 67 0.0 0.0 0.00 0.20 0.16 95 1019.7
20260903002434 65 66 0.0 0.0 0.00 0.20 0.16 95 1019.7
20260903000303 65 67 0.0 0.0 0.00 0.20 0.16 95 1019.2
20260902235259 65 67 0.0 0.0 0.00 0.20 0.16 95 1019.0
20260902234314 65 152 0.0 0.0 0.00 0.20 0.16 95 1019.0
20260902233328 65 152 0.0 0.0 0.00 0.20 0.16 95 1019.1
20260902232259 65 152 0.0 0.0 0.00 0.20 0.16 94 1019.2
20260902231314 65 152 0.0 0.0 0.00 0.20 0.16 94 1019.4
20260902230306 65 153 0.0 0.0 0.00 0.20 0.16 94 1019.6
20260902221605 66 153 0.0 0.0 0.00 0.22 0.16 93 1020.5
20260902220620 66 153 0.0 0.0 0.00 0.22 0.16 93 1020.4
20260902215559 66 217 0.0 0.0 0.00 0.22 0.16 93 1020.3
20260902214546 67 135 0.0 0.0 0.00 0.22 0.16 93 1020.3
20260902213529 66 122 0.0 0.0 0.00 0.22 0.16 94 1019.9
20260902212505 66 122 0.0 0.0 0.00 0.22 0.16 93 1020.0
20260902211434 66 122 0.0 0.0 0.00 0.22 0.16 94 1020.0
20260902210442 66 120 0.0 0.0 0.00 0.22 0.16 93 1020.0
20260902205412 66 120 0.0 0.0 0.00 0.22 0.16 93 1019.8
20260902204412 67 120 0.0 0.0 0.00 0.22 0.16 93 1019.8
20260902203431 67 150 0.0 0.0 0.00 0.22 0.16 94 1019.8
20260902202436 67 148 0.0 0.0 0.00 0.22 0.16 95 1019.9
20260902201415 66 148 0.0 0.0 0.00 0.22 0.16 95 1019.9
20260902200352 66 223 0.0 0.0 0.00 0.22 0.16 96 1020.0
20260902195348 65 39 0.0 0.0 0.00 0.22 0.16 96 1020.0
20260902194358 65 61 0.0 0.0 0.00 0.22 0.16 96 1019.9
20260902192242 64 61 0.0 0.0 0.06 0.22 0.16 95 1020.1
20260902191222 63 61 0.0 0.0 0.19 0.21 0.15 94 1020.3
20260902190204 64 60 0.0 0.0 0.32 0.17 0.10 93 1020.4
20260902185131 65 118 0.0 0.0 0.19 0.12 0.06 89 1021.0
20260902184108 66 133 0.0 0.0 0.00 0.07 0.01 86 1021.8
20260902183123 67 141 0.0 0.0 0.00 0.07 0.01 85 1020.9
20260902182122 67 137 0.0 0.0 0.00 0.08 0.01 85 1020.4
20260902181141 67 117 0.0 0.0 0.00 0.08 0.01 85 1020.4
20260902180134 67 138 0.0 0.0 0.00 0.08 0.01 84 1020.7
20260902175145 67 136 0.0 0.0 0.00 0.08 0.01 85 1020.8
20260902174155 67 105 0.0 0.0 0.00 0.08 0.01 86 1020.9
20260902173125 67 103 0.0 0.0 0.00 0.08 0.01 88 1020.8
20260902172148 67 98 0.0 0.0 0.00 0.08 0.01 88 1020.8
20260902171134 67 98 0.0 0.0 0.00 0.08 0.01 88 1021.0
20260902170117 67 98 0.0 0.0 0.00 0.08 0.01 87 1021.0
20260902165051 67 98 0.0 0.0 0.00 0.08 0.01 88 1021.1
20260902164017 66 87 0.0 0.0 0.00 0.08 0.01 88 1020.9
20260902163004 66 91 0.0 0.0 0.00 0.08 0.01 88 1020.7
20260902162014 66 111 0.0 0.0 0.00 0.08 0.01 87 1021.0
20260902160952 66 144 0.0 0.0 0.00 0.08 0.01 87 1021.0
20260902154912 66 136 0.0 0.0 0.00 0.08 0.01 88 1021.0
20260902153908 66 130 0.0 0.0 0.00 0.08 0.01 87 1021.0
20260902152902 66 139 0.0 0.0 0.00 0.08 0.01 86 1021.1
20260902151831 66 60 0.0 2.0 0.00 0.08 0.01 87 1020.9
20260902150847 66 41 0.0 3.0 0.00 0.08 0.01 87 1021.0
20260902145845 65 141 0.0 0.0 0.00 0.08 0.01 89 1021.0
20260902144902 65 69 0.0 0.0 0.00 0.08 0.01 90 1021.1
20260902143844 64 63 0.0 1.0 0.00 0.08 0.01 92 1021.1
20260902142814 64 82 0.0 1.0 0.00 0.09 0.01 92 1021.1
20260902140652 63 83 0.0 0.0 0.00 0.09 0.01 94 1021.5
20260902135629 63 76 0.0 0.0 0.00 0.09 0.01 94 1021.7
20260902133434 62 64 0.0 0.0 0.00 0.12 0.00 96 1021.1
20260902132443 62 64 0.0 0.0 0.00 0.13 0.00 96 1021.1
20260902131457 62 64 0.0 0.0 0.00 0.16 0.00 96 1020.8
20260902130453 62 78 0.0 0.0 0.00 0.26 0.00 96 1020.9
20260902125433 62 71 0.0 0.0 0.00 0.33 0.00 97 1021.1
20260902124424 61 75 0.0 0.0 0.00 0.33 0.00 97 1020.8
20260902123448 61 75 0.0 0.0 0.00 0.33 0.00 97 1020.8
20260902122423 61 53 0.0 0.0 0.00 0.33 0.00 97 1020.7
20260902121402 61 37 0.0 0.0 0.00 0.33 0.00 97 1020.8
20260902115251 61 81 0.0 0.0 0.00 0.33 0.00 98 1020.7
20260902112035 60 117 0.0 0.0 0.00 0.33 0.00 98 1020.8
20260902111053 60 219 0.0 0.0 0.00 0.33 0.00 98 1020.8
20260902110117 60 219 0.0 0.0 0.00 0.33 0.00 98 1020.7
20260902105049 60 219 0.0 0.0 0.00 0.33 0.00 98 1020.7
20260902104101 60 219 0.0 0.0 0.00 0.33 0.00 98 1020.6
20260902103033 60 219 0.0 0.0 0.00 0.33 0.00 98 1020.7
20260902102023 60 219 0.0 0.0 0.00 0.33 0.00 98 1020.6
20260902101014 60 219 0.0 0.0 0.00 0.33 0.00 98 1020.5
20260902094910 60 68 0.0 0.0 0.00 0.33 0.00 98 1020.2
20260902093902 61 68 0.0 0.0 0.00 0.33 0.00 98 1020.0
20260902092841 61 68 0.0 0.0 0.00 0.33 0.00 98 1019.9
20260902090702 61 101 0.0 0.0 0.00 0.33 0.00 98 1019.9
20260902085646 61 101 0.0 0.0 0.00 0.33 0.00 98 1019.8
20260902084615 61 101 0.0 0.0 0.00 0.33 0.00 98 1019.8
20260902083554 61 132 0.0 0.0 0.00 0.33 0.00 98 1019.5
20260902082527 61 89 0.0 0.0 0.00 0.35 0.00 98 1019.4
20260902075231 61 73 0.0 0.0 0.00 0.38 0.00 98 1019.2
20260902074253 61 73 0.0 0.0 0.00 0.38 0.00 98 1019.1
20260902073235 61 73 0.0 0.0 0.00 0.38 0.00 98 1019.2
20260902072218 61 73 0.0 0.0 0.00 0.38 0.00 98 1019.1
20260902070058 61 77 0.0 0.0 0.00 0.38 0.00 98 1019.0
20260902065103 61 82 0.0 0.0 0.00 0.38 0.00 98 1019.1
20260902064037 61 87 0.0 0.0 0.00 0.41 0.00 98 1019.2